Weather History for KONM - January, 2013

Change the Weather History Date:

Sunday, January 6, 2013

  Actual Average Record
Temperature  
Mean Temperature 31 °F -  
Max Temperature 46 °F 50 °F 55 °F (2012)
Min Temperature 16 °F 20 °F 15 °F (2014)
Degree Days  
Heating Degree Days 34    
Moisture  
Dew Point 6 °F    
Average Humidity 40    
Maximum Humidity 56    
Minimum Humidity 20    
Precipitation  
Precipitation 0.00 in - - ()
Sea Level Pressure  
Sea Level Pressure 30.29 in    
Wind  
Wind Speed 8 mph (NNW)    
Max Wind Speed 16 mph    
Max Gust Speed 21 mph    
Visibility 10 miles    
Events      
Averages and records for this station are not official NWS values.
T = Trace of Precipitation, MM = Missing Value Source: NWS Daily Summary

Daily Weather History Graph

Daily Weather History Graph

Search for Another Location

Airport or City:

Trip Planner

Search our weather history database for the weather conditions in past years. The results will help you decide how hot, cold, wet, or windy it might be!

Date:

Astronomy

Jan. 06, 2013 Rise Set
Actual Time 7:13 AM MST 5:13 PM MST
Civil Twilight 6:46 AM MST 5:41 PM MST
Nautical Twilight 6:15 AM MST 6:12 PM MST
Astronomical Twilight 5:44 AM MST 6:42 PM MST
Moon 1:37 AM MST (1/6) 12:38 PM MST (1/6)
Length of Visible Light 10h 54m
Length of Day
9h 59m
Waning Crescent, 32% of the Moon is Illuminated
Jan 6
Waning Crescent
Jan 11
New
Jan 18
First Quarter
Jan 26
Full
Feb 3
Last Quarter

Hourly Weather History & Observations

Time (MST) Temp. Windchill Dew Point Humidity Pressure Visibility Wind Dir Wind Speed Gust Speed Precip Events Conditions
12:15 AM 21.2 °F 13.6 °F 4.5 °F 49% 30.37 in 10.0 mi NNW 5.8 mph - N/A   Clear
12:35 AM 21.9 °F 14.5 °F 3.4 °F 45% 30.37 in 10.0 mi NNW 5.8 mph - N/A   Clear
12:55 AM 21.2 °F 12.6 °F 3.4 °F 46% 30.37 in 10.0 mi NNW 6.9 mph - N/A   Clear
1:15 AM 20.8 °F 12.1 °F 3.0 °F 46% 30.37 in 10.0 mi NNW 6.9 mph - N/A   Clear
1:35 AM 21.2 °F 11.7 °F 2.3 °F 44% 30.37 in 10.0 mi NNW 8.1 mph - N/A   Clear
1:55 AM 21.6 °F 12.1 °F 2.1 °F 43% 30.37 in 10.0 mi North 8.1 mph - N/A   Clear
2:15 AM 21.0 °F 11.4 °F 2.3 °F 44% 30.37 in 10.0 mi North 8.1 mph - N/A   Clear
2:35 AM 19.4 °F 9.5 °F 2.3 °F 48% 30.37 in 10.0 mi NNW 8.1 mph - N/A   Clear
2:55 AM 19.9 °F 10.1 °F 3.0 °F 48% 30.37 in 10.0 mi NW 8.1 mph - N/A   Clear
3:15 AM 19.4 °F 8.6 °F 3.4 °F 50% 30.37 in 10.0 mi NW 9.2 mph - N/A   Clear
3:35 AM 20.5 °F 10.0 °F 3.7 °F 48% 30.37 in 10.0 mi North 9.2 mph - N/A   Clear
3:55 AM 19.8 °F 9.9 °F 2.7 °F 48% 30.36 in 10.0 mi NNW 8.1 mph - N/A   Clear
4:15 AM 18.0 °F 6.1 °F 2.7 °F 51% 30.36 in 10.0 mi NW 10.4 mph - N/A   Clear
4:35 AM 18.3 °F 6.6 °F 2.7 °F 51% 30.36 in 10.0 mi NNW 10.4 mph - N/A   Clear
4:55 AM 19.2 °F 8.4 °F 2.8 °F 49% 30.36 in 10.0 mi North 9.2 mph - N/A   Clear
5:15 AM 18.7 °F 7.8 °F 2.8 °F 50% 30.37 in 10.0 mi NNW 9.2 mph - N/A   Clear
5:35 AM 17.6 °F 6.4 °F 2.3 °F 51% 30.37 in 10.0 mi North 9.2 mph - N/A   Clear
5:55 AM 17.1 °F 5.8 °F 2.3 °F 52% 30.37 in 10.0 mi NNW 9.2 mph - N/A   Clear
6:15 AM 17.6 °F 7.3 °F 3.0 °F 53% 30.37 in 10.0 mi NNW 8.1 mph - N/A   Clear
6:35 AM 18.1 °F 7.9 °F 3.2 °F 52% 30.39 in 10.0 mi NNW 8.1 mph - N/A   Clear
6:55 AM 17.4 °F 7.1 °F 3.2 °F 54% 30.39 in 10.0 mi NNW 8.1 mph - N/A   Clear
7:15 AM 16.5 °F 6.9 °F 3.0 °F 55% 30.39 in 10.0 mi NNW 6.9 mph - N/A   Clear
7:35 AM 16.5 °F 8.1 °F 3.2 °F 56% 30.39 in 10.0 mi NNW 5.8 mph - N/A   Clear
7:55 AM 18.1 °F 10.0 °F 3.2 °F 52% 30.39 in 10.0 mi North 5.8 mph - N/A   Clear
8:35 AM 20.8 °F 11.2 °F 3.2 °F 47% 30.40 in 10.0 mi North 8.1 mph - N/A   Clear
8:55 AM 22.6 °F 14.3 °F 3.4 °F 44% 30.40 in 10.0 mi NNW 6.9 mph - N/A   Clear
9:15 AM 23.7 °F 14.7 °F 3.7 °F 42% 30.40 in 10.0 mi North 8.1 mph - N/A   Clear
9:35 AM 26.2 °F 16.4 °F 4.6 °F 40% 30.40 in 10.0 mi North 10.4 mph - N/A   Clear
9:55 AM 28.2 °F 19.5 °F 5.4 °F 38% 30.40 in 10.0 mi North 9.2 mph - N/A   Clear
10:15 AM 29.8 °F 21.5 °F 5.4 °F 35% 30.40 in 10.0 mi North 9.2 mph - N/A   Clear
10:35 AM 31.5 °F 23.5 °F 5.4 °F 33% 30.39 in 10.0 mi North 9.2 mph - N/A   Clear
10:55 AM 32.7 °F 25.7 °F 5.7 °F 32% 30.38 in 10.0 mi North 8.1 mph - N/A   Clear
11:15 AM 34.0 °F 27.2 °F 6.1 °F 31% 30.36 in 10.0 mi North 8.1 mph - N/A   Clear
11:35 AM 35.1 °F 28.6 °F 6.3 °F 30% 30.35 in 10.0 mi North 8.1 mph - N/A   Clear
11:55 AM 35.6 °F 30.7 °F 6.4 °F 30% 30.34 in 10.0 mi North 5.8 mph - N/A   Clear
12:15 PM 36.0 °F 32.1 °F 6.8 °F 30% 30.32 in 10.0 mi North 4.6 mph - N/A   Clear
12:35 PM 35.8 °F 33.0 °F 6.6 °F 30% 30.30 in 10.0 mi North 3.5 mph - N/A   Clear
12:55 PM 36.5 °F - 6.6 °F 29% 30.28 in 10.0 mi Calm Calm - N/A   Clear
1:15 PM 37.8 °F - 6.8 °F 28% 30.26 in 10.0 mi Calm Calm - N/A   Clear
1:55 PM 40.6 °F 37.5 °F 7.0 °F 25% 30.24 in 10.0 mi SSE 4.6 mph - N/A   Clear
2:15 PM 42.8 °F 39.3 °F 7.5 °F 24% 30.22 in 10.0 mi SE 5.8 mph - N/A   Clear
2:35 PM 45.5 °F 40.3 °F 7.7 °F 21% 30.21 in 10.0 mi SSE 10.4 mph - N/A   Clear
2:55 PM 46.9 °F - 7.7 °F 20% 30.21 in 10.0 mi SSE 13.8 mph - N/A   Clear
3:15 PM 45.9 °F 39.1 °F 7.7 °F 21% 30.20 in 10.0 mi SSE 16.1 mph 20.7 mph N/A   Clear
3:55 PM 45.5 °F 39.6 °F 8.1 °F 22% 30.20 in 10.0 mi SSE 12.7 mph - N/A   Clear
4:15 PM 44.8 °F 38.3 °F 8.1 °F 22% 30.19 in 10.0 mi SSE 13.8 mph - N/A   Clear
4:35 PM 43.0 °F 36.8 °F 8.1 °F 24% 30.19 in 10.0 mi SSE 11.5 mph - N/A   Clear
4:55 PM 41.9 °F 36.3 °F 8.4 °F 25% 30.19 in 10.0 mi SSE 9.2 mph - N/A   Clear
5:15 PM 40.5 °F 35.1 °F 8.4 °F 27% 30.19 in 10.0 mi South 8.1 mph - N/A   Clear
5:35 PM 39.4 °F 33.8 °F 8.6 °F 28% 30.18 in 10.0 mi South 8.1 mph - N/A   Clear
5:55 PM 38.3 °F 33.2 °F 8.8 °F 30% 30.19 in 10.0 mi South 6.9 mph - N/A   Clear
6:15 PM 36.9 °F 30.1 °F 8.6 °F 31% 30.18 in 10.0 mi South 9.2 mph - N/A   Clear
6:35 PM 36.3 °F 30.8 °F 9.1 °F 32% 30.18 in 10.0 mi South 6.9 mph - N/A   Clear
6:55 PM 36.5 °F 29.2 °F 9.5 °F 33% 30.17 in 10.0 mi South 10.4 mph - N/A   Clear
7:15 PM 36.3 °F 30.1 °F 10.4 °F 34% 30.17 in 10.0 mi South 8.1 mph - N/A   Clear
7:55 PM 35.6 °F 29.2 °F 13.1 °F 40% 30.17 in 10.0 mi South 8.1 mph - N/A   Clear
8:55 PM 34.9 °F 29.0 °F 13.1 °F 41% 30.15 in 10.0 mi South 6.9 mph - N/A   Clear
9:15 PM 34.0 °F 28.0 °F 13.3 °F 43% 30.15 in 10.0 mi South 6.9 mph - N/A   Clear
9:35 PM 33.3 °F 27.9 °F 14.4 °F 46% 30.15 in 10.0 mi South 5.8 mph - N/A   Clear
9:55 PM 32.9 °F 26.7 °F 14.5 °F 47% 30.15 in 10.0 mi South 6.9 mph - N/A   Clear
10:35 PM 32.2 °F 27.7 °F 14.0 °F 47% 30.13 in 10.0 mi South 4.6 mph - N/A   Clear
10:55 PM 32.0 °F 27.5 °F 14.9 °F 49% 30.13 in 10.0 mi South 4.6 mph - N/A   Clear
11:35 PM 30.6 °F 24.7 °F 14.9 °F 52% 30.13 in 10.0 mi South 5.8 mph - N/A   Clear
11:55 PM 30.2 °F 23.4 °F 14.9 °F 53% 30.12 in 10.0 mi South 6.9 mph - N/A   Clear